Regional Weather Roundup
Issued by NWS

Home | Current Version | Previous Version | Text Only | Print | Product List | Glossary Off
Versions: 1 2 3 4 5 6 7 8 9 10 11 12 13 14 15 16 17 18 19 20 21 22 23 24 25 26 27 28 29 30 31 32 33 34 35 36 37 38 39 40 41 42 43 44 45 46 47 48 49 50

000
ASUS45 KCYS 260310
RWRWY

WYOMING REGIONAL WEATHER ROUNDUP
NATIONAL WEATHER SERVICE CHEYENNE WY
900 PM MDT SAT MAR 25 2017

NOTE:  "FAIR" INDICATES FEW OR NO CLOUDS BELOW 12,000 FEET
WITH NO SIGNIFICANT WEATHER AND/OR OBSTRUCTIONS TO VISIBILITY.

WYZ001-260400-
YELLOWSTONE NATIONAL PARK

CITY           SKY/WX    TMP DP  RH WIND       PRES   REMARKS
LK YELLOWSTONE   N/A     26  21  81 CALM      29.98R
W YELLOWSTONE  NOT AVBL

$$
WYZ002>013-054>058-071-098>099-260400-
NORTHERN WYOMING

CITY           SKY/WX    TMP DP  RH WIND       PRES   REMARKS
JACKSON        FAIR      36  27  69 E3        29.97R
CODY           MOCLDY    42  29  59 NW9       29.95R
GREYBULL       CLOUDY    45  41  86 CALM      29.90R
WORLAND        CLOUDY    44  42  93 N5        29.91R
SHERIDAN       LGT RAIN  41  38  89 W7        29.95R
BUFFALO        LGT RAIN  40  36  86 NW16      29.93R WCI  31
GILLETTE       CLOUDY    45  34  65 N8        29.88R
HULETT         CLOUDY    46  34  61 NE6       29.89S
NEWCASTLE      FAIR      54  27  35 E15       29.82S

$$
WYZ014>020-022>026-101>103-260400-
CENTRAL WYOMING

CITY           SKY/WX    TMP DP  RH WIND       PRES   REMARKS
BIG PINEY      MOCLDY    33  30  88 N14       29.95R WCI  23
PINEDALE       FAIR      32  32 100 NW15      29.95R WCI  22
DUBOIS         CLOUDY    36  27  69 W16       29.91R WCI  26
LANDER         CLOUDY    41  35  79 NW10      29.88R
RIVERTON       LGT RAIN  40  38  93 NW17      29.89R WCI  31
CASPER         CLOUDY    47  33  58 NW10      29.87R
DOUGLAS        CLOUDY    48  32  53 W10       29.85R

$$
WYZ021-027>030-104>119-260400-
SOUTHERN WYOMING

CITY           SKY/WX    TMP DP  RH WIND       PRES   REMARKS
EVANSTON       FOG       33  30  88 N5        29.99R VSB 1/2 WCI  29
KEMMERER         N/A     32  30  93 NW13      29.97R WCI  22
FORT BRIDGER   LGT RAIN  35  35 100 NW14G20   30.00R WCI  26
ROCK SPRINGS   LGT RAIN  38  35  89 SW9       29.93S WCI  31
DIXON            N/A     48  30  48 S10       29.93R
RAWLINS        CLOUDY    45  32  60 S8        29.90R
SARATOGA       LGT RAIN  43  32  65 N7G17     29.93R
LARAMIE        CLOUDY    45  24  43 S13       29.87S
CHEYENNE       MOCLDY    49  27  42 S9        29.87S
TORRINGTON     FAIR      54  29  38 S10       29.80R
PINE BLUFFS    FAIR      46  28  49 S14       29.86S

$$



USA.gov is the U.S. government's official web portal to all federal, state and local government web resources and services.